When you browse on this site, cookies collect data to enhance your experience and personalize the content and advertising you see.
Visit our Privacy Policy to learn more. By continuing to use the site, you agree to this use of cookies and data.
  • In Portugal
  • List of Countries
  • For 7 days
  • Water Temperature
  • Satellite Maps
  • Weather Map
  • Weather Widgets
  • user-avatar
    Login

    Hourly Weather Irbid

    Today, 22 January, Tuesday

    Time Temperature Precipitation Wind Pressure Humidity
    00:00 +10°C° 0 mm 2 mps 712 mmHg 48%
    01:00 +9°C° 0 mm 2 mps 711 mmHg 48%
    02:00 +9°C° 0 mm 2 mps 711 mmHg 49%
    03:00 +9°C° 0 mm 2 mps 711 mmHg 49%
    04:00 +9°C° 0 mm 2 mps 711 mmHg 49%
    05:00 +8°C° 0 mm 2 mps 711 mmHg 49%
    06:00 +9°C° 0 mm 2 mps 711 mmHg 48%
    07:00 +10°C° 0 mm 2 mps 711 mmHg 47%
    08:00 +10°C° 0 mm 2 mps 711 mmHg 45%
    09:00 +13°C° 0 mm 2 mps 711 mmHg 41%
    10:00 +14°C° 0 mm 1 mps 712 mmHg 37%
    11:00 +16°C° 0 mm 1 mps 712 mmHg 34%
    12:00 +18°C° 0 mm 1 mps 712 mmHg 33%
    13:00 +17°C° 0 mm 2 mps 712 mmHg 32%
    14:00 +17°C° 0 mm 2 mps 711 mmHg 32%
    15:00 +16°C° 0 mm 2 mps 711 mmHg 37%
    16:00 +15°C° 0 mm 2 mps 711 mmHg 42%
    17:00 +14°C° 0 mm 2 mps 711 mmHg 47%
    18:00 +13°C° 0 mm 2 mps 711 mmHg 52%
    19:00 +12°C° 0 mm 1 mps 711 mmHg 57%
    20:00 +11°C° 0 mm 1 mps 711 mmHg 62%
    21:00 +10°C° 0 mm 1 mps 711 mmHg 66%
    22:00 +9°C° 0 mm 0 mps 711 mmHg 69%
    23:00 +8°C° 0 mm 0 mps 711 mmHg 72%

    Tomorrow, 23 January, Wednesday

    Time Temperature Precipitation Wind Pressure Humidity
    00:00 +8°C° 0 mm 0 mps 711 mmHg 74%
    01:00 +7°C° 0 mm 0 mps 711 mmHg 76%
    02:00 +7°C° 0 mm 0 mps 711 mmHg 79%
    03:00 +7°C° 0 mm 0 mps 711 mmHg 79%
    04:00 +6°C° 0 mm 0 mps 711 mmHg 79%
    05:00 +6°C° 0 mm 0 mps 711 mmHg 79%
    06:00 +8°C° 0 mm 1 mps 711 mmHg 75%
    07:00 +9°C° 0 mm 1 mps 712 mmHg 70%
    08:00 +10°C° 0 mm 1 mps 712 mmHg 65%
    09:00 +12°C° 0 mm 1 mps 712 mmHg 56%
    10:00 +13°C° 0 mm 1 mps 712 mmHg 47%
    11:00 +15°C° 0 mm 2 mps 712 mmHg 39%
    12:00 +16°C° 0 mm 2 mps 712 mmHg 35%
    13:00 +17°C° 0 mm 2 mps 711 mmHg 30%
    14:00 +18°C° 0 mm 2 mps 711 mmHg 26%
    15:00 +16°C° 0 mm 2 mps 711 mmHg 29%
    16:00 +15°C° 0 mm 2 mps 710 mmHg 32%
    17:00 +14°C° 0 mm 2 mps 710 mmHg 35%
    18:00 +14°C° 0 mm 2 mps 710 mmHg 37%
    19:00 +12°C° 0 mm 3 mps 710 mmHg 38%
    20:00 +11°C° 0 mm 3 mps 710 mmHg 40%
    21:00 +11°C° 0 mm 3 mps 710 mmHg 42%
    22:00 +10°C° 0 mm 3 mps 710 mmHg 43%
    23:00 +10°C° 0 mm 3 mps 709 mmHg 45%

    Day after tomorrow, 24 January, Thursday

    Time Temperature Precipitation Wind Pressure Humidity
    00:00 +10°C° 0 mm 3 mps 709 mmHg 46%
    01:00 +9°C° 0 mm 3 mps 709 mmHg 47%
    02:00 +9°C° 0 mm 3 mps 709 mmHg 47%
    03:00 +9°C° 0 mm 3 mps 708 mmHg 48%
    04:00 +8°C° 0 mm 3 mps 708 mmHg 48%
    05:00 +8°C° 0 mm 3 mps 708 mmHg 49%
    06:00 +8°C° 0 mm 3 mps 708 mmHg 49%
    07:00 +9°C° 0 mm 3 mps 708 mmHg 49%
    08:00 +10°C° 0 mm 3 mps 709 mmHg 49%
    09:00 +12°C° 0 mm 3 mps 709 mmHg 43%
    10:00 +14°C° 0 mm 3 mps 709 mmHg 36%
    11:00 +17°C° 0 mm 4 mps 709 mmHg 30%
    12:00 +18°C° 0 mm 3 mps 708 mmHg 27%
    13:00 +19°C° 0 mm 3 mps 708 mmHg 25%
    14:00 +20°C° 0 mm 3 mps 707 mmHg 22%
    15:00 +19°C° 0 mm 2 mps 707 mmHg 24%
    16:00 +18°C° 0 mm 2 mps 707 mmHg 27%
    17:00 +17°C° 0 mm 2 mps 707 mmHg 29%
    18:00 +17°C° 0 mm 2 mps 707 mmHg 30%
    19:00 +16°C° 0 mm 2 mps 708 mmHg 31%
    20:00 +16°C° 0 mm 3 mps 708 mmHg 32%
    21:00 +13°C° 0 mm 3 mps 709 mmHg 48%
    22:00 +12°C° 0 mm 2 mps 709 mmHg 64%
    23:00 +10°C° 0 mm 2 mps 710 mmHg 81%

    25 January, Friday

    Time Temperature Precipitation Wind Pressure Humidity
    00:00 +9°C° 0 mm 2 mps 710 mmHg 83%
    01:00 +9°C° 0 mm 2 mps 710 mmHg 86%
    02:00 +9°C° 0 mm 1 mps 710 mmHg 88%
    03:00 +9°C° 0 mm 1 mps 710 mmHg 87%
    04:00 +8°C° 0 mm 1 mps 710 mmHg 87%
    05:00 +8°C° 0 mm 1 mps 709 mmHg 86%
    06:00 +9°C° 0 mm 1 mps 710 mmHg 81%
    07:00 +8°C° 0 mm 2 mps 710 mmHg 76%
    08:00 +9°C° 0 mm 2 mps 710 mmHg 72%
    09:00 +12°C° 0 mm 2 mps 711 mmHg 62%
    10:00 +14°C° 0 mm 2 mps 711 mmHg 53%
    11:00 +15°C° 0 mm 2 mps 711 mmHg 43%
    12:00 +16°C° 0 mm 2 mps 711 mmHg 40%
    13:00 +17°C° 0 mm 2 mps 710 mmHg 37%
    14:00 +18°C° 0 mm 2 mps 710 mmHg 34%
    15:00 +17°C° 0 mm 2 mps 709 mmHg 38%
    16:00 +16°C° 0 mm 2 mps 709 mmHg 43%
    17:00 +15°C° 0 mm 1 mps 709 mmHg 47%
    18:00 +15°C° 0 mm 2 mps 709 mmHg 48%
    19:00 +14°C° 0 mm 2 mps 709 mmHg 50%
    20:00 +14°C° 0 mm 2 mps 709 mmHg 51%
    21:00 +13°C° 0 mm 2 mps 709 mmHg 52%
    22:00 +13°C° 0 mm 2 mps 709 mmHg 53%
    23:00 +12°C° 0 mm 2 mps 708 mmHg 54%

    26 January, Saturday

    Time Temperature Precipitation Wind Pressure Humidity
    00:00 +12°C° 0 mm 2 mps 708 mmHg 54%
    01:00 +12°C° 0 mm 2 mps 708 mmHg 55%
    02:00 +10°C° 0 mm 2 mps 707 mmHg 56%
    03:00 +11°C° 0 mm 1 mps 707 mmHg 56%
    04:00 +11°C° 0 mm 1 mps 707 mmHg 56%
    05:00 +10°C° 0 mm 1 mps 707 mmHg 56%
    06:00 +11°C° 0 mm 1 mps 707 mmHg 54%
    07:00 +13°C° 0 mm 2 mps 708 mmHg 51%
    08:00 +14°C° 0 mm 2 mps 708 mmHg 48%
    09:00 +16°C° 0 mm 2 mps 709 mmHg 41%
    10:00 +18°C° 0 mm 2 mps 709 mmHg 34%
    11:00 +20°C° 0 mm 2 mps 709 mmHg 26%
    12:00 +20°C° 0 mm 4 mps 709 mmHg 25%
    13:00 +21°C° 0 mm 5 mps 709 mmHg 23%
    14:00 +21°C° 0 mm 7 mps 709 mmHg 22%
    15:00 +19°C° 0 mm 6 mps 709 mmHg 32%
    16:00 +16°C° 0 mm 5 mps 709 mmHg 42%
    17:00 +13°C° 0 mm 4 mps 709 mmHg 52%
    18:00 +12°C° 0 mm 3 mps 709 mmHg 60%
    19:00 +12°C° 0 mm 2 mps 709 mmHg 67%
    20:00 +11°C° 0 mm 1 mps 709 mmHg 74%
    21:00 +11°C° 0 mm 1 mps 709 mmHg 75%
    22:00 +10°C° 0 mm 1 mps 709 mmHg 76%
    23:00 +10°C° 0 mm 1 mps 709 mmHg 76%

    27 January, Sunday

    Time Temperature Precipitation Wind Pressure Humidity
    00:00 +10°C° 0 mm 1 mps 709 mmHg 75%
    01:00 +9°C° 0 mm 1 mps 709 mmHg 73%
    02:00 +9°C° 0 mm 1 mps 709 mmHg 72%
    03:00 +9°C° 0 mm 1 mps 709 mmHg 70%
    04:00 +9°C° 0 mm 1 mps 709 mmHg 67%
    05:00 +9°C° 0 mm 1 mps 709 mmHg 65%
    06:00 +10°C° 0 mm 1 mps 709 mmHg 60%
    07:00 +11°C° 0 mm 1 mps 710 mmHg 55%
    08:00 +12°C° 0 mm 2 mps 710 mmHg 51%
    09:00 +14°C° 0 mm 2 mps 710 mmHg 44%
    10:00 +15°C° 0 mm 1 mps 710 mmHg 38%
    11:00 +18°C° 0 mm 1 mps 710 mmHg 32%
    12:00 +19°C° 0 mm 1 mps 710 mmHg 30%
    13:00 +18°C° 0 mm 2 mps 709 mmHg 28%
    14:00 +19°C° 0 mm 2 mps 709 mmHg 25%
    15:00 +19°C° 0 mm 1 mps 708 mmHg 30%
    16:00 +16°C° 0 mm 1 mps 708 mmHg 34%
    17:00 +15°C° 0 mm 1 mps 708 mmHg 38%
    18:00 +14°C° 0 mm 1 mps 708 mmHg 40%
    19:00 +13°C° 0 mm 1 mps 708 mmHg 42%
    20:00 +12°C° 0 mm 1 mps 707 mmHg 44%
    21:00 +12°C° 0 mm 1 mps 707 mmHg 45%
    22:00 +12°C° 0 mm 1 mps 707 mmHg 46%
    23:00 +11°C° 0 mm 1 mps 707 mmHg 47%
    Show more